Location: *
(52.2090°N, 4.1550°W)
Time: 23:30:43
(UTC+00:00)

Cosmos 1763 Rocket - Pass Details

Date: 19 July 2019
Orbit: 733 x 780 km, 74.0° (Epoch: 18 August)

Event Time Altitude Azimuth Distance (km) Brightness Sun altitude
Rises 22:55:59 0° 334° (NNW) 3,206 8.7 -14.6°
Reaches altitude 10° 22:58:21 10° 336° (NNW) 2,285 7.4 -14.7°
Maximum altitude 23:03:32 81° 64° (ENE) 776 3.5 -15.0°
Enters shadow 23:06:49 23° 150° (SSE) 1,566 4.5 -15.2°
